Bingham Lake, MN

12:16 AM CST on February 22, 2017 (GMT -0600)
Windom Municipal

Weather History for KMWM - November, 2011

Change the Weather History Date:

Thursday, November 17, 2011

  Actual Average Record
Temperature  
Mean Temperature 20 °F -  
Max Temperature 35 °F 43 °F 69 °F (1953)
Min Temperature 5 °F 24 °F -7 °F (1959)
Degree Days  
Heating Degree Days 45    
Moisture  
Dew Point 6 °F    
Average Humidity 55    
Maximum Humidity 85    
Minimum Humidity 30    
Precipitation  
Precipitation 0.00 in - - ()
Sea Level Pressure  
Sea Level Pressure 30.07 in    
Wind  
Wind Speed 6 mph (South)    
Max Wind Speed 15 mph    
Max Gust Speed 22 mph    
Visibility 10 miles    
Events      
Averages and records for this station are not official NWS values.
T = Trace of Precipitation, MM = Missing Value Source: NWS Daily Summary

Daily Weather History Graph

Daily Weather History Graph

Search for Another Location

Airport or City:

Trip Planner

Search our weather history database for the weather conditions in past years. The results will help you decide how hot, cold, wet, or windy it might be!

Date:

Astronomy

Nov. 17, 2011 Rise Set
Actual Time 7:17 AM CST 4:52 PM CST
Civil Twilight 6:46 AM CST 5:24 PM CST
Nautical Twilight 6:11 AM CST 5:59 PM CST
Astronomical Twilight 5:37 AM CST 6:33 PM CST
Moon 11:18 PM CST (11/17) 12:23 PM CST (11/17)
Length of Visible Light 10h 37m
Length of Day
9h 35m
Waning Gibbous, 59% of the Moon is Illuminated
Nov 17
Waning Gibbous
Nov 18
Last Quarter
Nov 25
New
Dec 2
First Quarter
Dec 10
Full

Hourly Weather History & Observations

Time (CST) Temp. Windchill Dew Point Humidity Pressure Visibility Wind Dir Wind Speed Gust Speed Precip Events Conditions
12:12 AM 10.4 °F -0.4 °F 3.2 °F 73% 30.17 in 10.0 mi West 6.9 mph - N/A   Clear
12:33 AM 10.4 °F -2.4 °F 3.2 °F 73% 30.17 in 10.0 mi WSW 9.2 mph - N/A   Clear
12:52 AM 10.4 °F -2.4 °F 3.2 °F 73% 30.17 in 10.0 mi WSW 9.2 mph - N/A   Clear
1:12 AM 12.2 °F 0.7 °F 3.2 °F 67% 30.17 in 10.0 mi West 8.1 mph - N/A   Clear
1:52 AM 8.6 °F -2.6 °F 1.4 °F 73% 30.17 in 10.0 mi West 6.9 mph - N/A   Clear
2:12 AM 8.6 °F -2.6 °F 1.4 °F 73% 30.17 in 10.0 mi West 6.9 mph - N/A   Clear
2:33 AM 10.4 °F -0.4 °F 3.2 °F 73% 30.17 in 10.0 mi West 6.9 mph - N/A   Clear
2:52 AM 8.6 °F -2.6 °F 3.2 °F 79% 30.17 in 10.0 mi West 6.9 mph - N/A   Clear
3:12 AM 8.6 °F -2.6 °F 1.4 °F 73% 30.16 in 10.0 mi West 6.9 mph - N/A   Clear
3:33 AM 6.8 °F -4.8 °F 1.4 °F 79% 30.16 in 10.0 mi West 6.9 mph - N/A   Clear
3:52 AM 8.6 °F -1.3 °F 3.2 °F 79% 30.16 in 10.0 mi West 5.8 mph - N/A   Clear
4:12 AM 8.6 °F -1.3 °F 1.4 °F 73% 30.16 in 10.0 mi WNW 5.8 mph - N/A   Clear
4:33 AM 8.6 °F - 1.4 °F 73% 30.17 in 10.0 mi Calm Calm - N/A   Clear
4:52 AM 8.6 °F 2.0 °F 3.2 °F 79% 30.16 in 10.0 mi West 3.5 mph - N/A   Clear
5:12 AM 8.6 °F -1.3 °F 3.2 °F 79% 30.16 in 10.0 mi West 5.8 mph - N/A   Clear
5:33 AM 6.8 °F -2.0 °F 1.4 °F 79% 30.16 in 10.0 mi West 4.6 mph - N/A   Clear
5:52 AM 6.8 °F -2.0 °F 1.4 °F 79% 30.16 in 10.0 mi WSW 4.6 mph - N/A   Clear
6:12 AM 8.6 °F - 1.4 °F 73% 30.16 in 10.0 mi Calm Calm - N/A   Clear
6:33 AM 8.6 °F 0.1 °F 3.2 °F 79% 30.16 in 10.0 mi South 4.6 mph - N/A   Clear
6:52 AM 6.8 °F - 1.4 °F 79% 30.17 in 10.0 mi Calm Calm - N/A   Clear
7:13 AM 5.0 °F - -0.4 °F 78% 30.17 in 10.0 mi Calm Calm - N/A   Clear
7:32 AM 5.0 °F - 1.4 °F 85% 30.17 in 10.0 mi Calm Calm - N/A   Clear
7:52 AM 6.8 °F - 3.2 °F 85% 30.17 in 10.0 mi Calm Calm - N/A   Clear
8:13 AM 8.6 °F - 3.2 °F 79% 30.17 in 10.0 mi Calm Calm - N/A   Clear
9:13 AM 17.6 °F - 8.6 °F 68% 30.17 in 10.0 mi Calm Calm - N/A   Clear
9:32 AM 19.4 °F - 8.6 °F 63% 30.17 in 10.0 mi Calm Calm - N/A   Clear
9:52 AM 21.2 °F - 8.6 °F 58% 30.16 in 10.0 mi Calm Calm - N/A   Clear
10:13 AM 23.0 °F - 10.4 °F 59% 30.16 in 10.0 mi Calm Calm - N/A   Clear
10:33 AM 24.8 °F 19.1 °F 10.4 °F 54% 30.16 in 10.0 mi South 4.6 mph - N/A   Clear
11:13 AM 26.6 °F - 10.4 °F 51% 30.15 in 10.0 mi Calm Calm - N/A   Clear
11:33 AM 28.4 °F - 10.4 °F 47% 30.13 in 10.0 mi Calm Calm - N/A   Clear
11:52 AM 30.2 °F - 8.6 °F 40% 30.12 in 10.0 mi Calm Calm - N/A   Clear
12:13 PM 30.2 °F 26.7 °F 8.6 °F 40% 30.11 in 10.0 mi SE 3.5 mph - N/A   Clear
12:33 PM 32.0 °F 28.7 °F 8.6 °F 38% 30.09 in 10.0 mi SSE 3.5 mph - N/A   Clear
12:52 PM 33.8 °F 28.6 °F 8.6 °F 35% 30.07 in 10.0 mi South 5.8 mph - N/A   Clear
1:13 PM 33.8 °F 28.6 °F 6.8 °F 32% 30.07 in 10.0 mi SSE 5.8 mph - N/A   Clear
1:33 PM 35.6 °F 30.7 °F 6.8 °F 30% 30.06 in 10.0 mi SSE 5.8 mph - N/A   Clear
1:52 PM 35.6 °F 28.6 °F 6.8 °F 30% 30.04 in 10.0 mi ESE 9.2 mph - N/A   Clear
2:13 PM 35.6 °F 28.6 °F 8.6 °F 33% 30.03 in 10.0 mi SE 9.2 mph - N/A   Clear
2:33 PM 33.8 °F 25.8 °F 8.6 °F 35% 30.03 in 10.0 mi SE 10.4 mph - N/A   Clear
2:52 PM 33.8 °F 25.3 °F 8.6 °F 35% 30.02 in 10.0 mi SE 11.5 mph - N/A   Clear
3:13 PM 33.8 °F 25.8 °F 8.6 °F 35% 30.00 in 10.0 mi SE 10.4 mph - N/A   Clear
3:32 PM 33.8 °F 25.3 °F 8.6 °F 35% 29.99 in 10.0 mi ESE 11.5 mph 16.1 mph N/A   Clear
3:53 PM 33.8 °F 25.3 °F 8.6 °F 35% 29.97 in 10.0 mi ESE 11.5 mph - N/A   Clear
4:13 PM 33.8 °F 25.3 °F 8.6 °F 35% 29.97 in 10.0 mi SE 11.5 mph - N/A   Clear
4:32 PM 33.8 °F 25.3 °F 8.6 °F 35% 29.96 in 10.0 mi SE 11.5 mph - N/A   Clear
4:52 PM 33.8 °F 25.3 °F 8.6 °F 35% 29.94 in 10.0 mi SE 11.5 mph - N/A   Clear
5:13 PM 32.0 °F 23.6 °F 8.6 °F 38% 29.94 in 10.0 mi ESE 10.4 mph - N/A   Clear
5:32 PM 30.2 °F 21.3 °F 8.6 °F 40% 29.92 in 10.0 mi ESE 10.4 mph - N/A   Clear
5:52 PM 30.2 °F 21.3 °F 8.6 °F 40% 29.91 in 10.0 mi ESE 10.4 mph - N/A   Clear
6:13 PM 30.2 °F 20.8 °F 8.6 °F 40% 29.90 in 10.0 mi ESE 11.5 mph - N/A   Clear
6:32 PM 30.2 °F 21.9 °F 8.6 °F 40% 29.89 in 10.0 mi ESE 9.2 mph - N/A   Clear
6:53 PM 30.2 °F 21.3 °F 8.6 °F 40% 29.88 in 10.0 mi SE 10.4 mph - N/A   Clear
7:13 PM 30.2 °F 21.9 °F 8.6 °F 40% 29.87 in 10.0 mi SE 9.2 mph - N/A   Clear
7:32 PM 32.0 °F 22.5 °F 10.4 °F 41% 29.86 in 10.0 mi SE 12.7 mph - N/A   Clear
7:53 PM 33.8 °F 25.3 °F 10.4 °F 38% 29.85 in 10.0 mi SE 11.5 mph 17.3 mph N/A   Clear
8:13 PM 33.8 °F 23.9 °F 10.4 °F 38% 29.83 in 10.0 mi SSE 15.0 mph 21.9 mph N/A   Clear
8:32 PM 33.8 °F 24.3 °F 12.2 °F 41% 29.82 in 10.0 mi SSE 13.8 mph 18.4 mph N/A   Clear
8:53 PM 32.0 °F 22.5 °F 12.2 °F 44% 29.81 in 10.0 mi SE 12.7 mph - N/A   Clear
9:53 PM 35.6 °F 26.6 °F 17.6 °F 48% 29.77 in 10.0 mi South 13.8 mph 18.4 mph N/A   Scattered Clouds
10:32 PM 37.4 °F 27.5 °F 19.4 °F 48% 29.73 in 10.0 mi South 18.4 mph 24.2 mph N/A   Scattered Clouds
11:13 PM 35.6 °F 25.2 °F 19.4 °F 52% 29.71 in 10.0 mi South 18.4 mph 27.6 mph N/A   Clear
11:32 PM 35.6 °F 24.5 °F 19.4 °F 52% 29.69 in 10.0 mi South 20.7 mph 31.1 mph N/A   Clear
11:53 PM 35.6 °F 24.8 °F 19.4 °F 52% 29.68 in 10.0 mi South 19.6 mph 28.8 mph N/A   Clear